This is the latest recevied weather packets stored in our database for station/object WY7EM. If no packets are shown the sender has not sent any weather packets the latest 10 day(s).
| Time | Temp. | Humidity | Pressure | Rain* | Wind** | Luminosity | Snow |
|---|---|---|---|---|---|---|---|
| 1778211629 | 21.67° C | 19% | 1013.9 hPa | 0 mm | - | 0 W/m² | - |
| 1778211327 | 22.22° C | 20% | 1013.8 hPa | 0 mm | - | 0 W/m² | - |
| 1778211025 | 22.22° C | 20% | 1013.7 hPa | 0 mm | - | 0 W/m² | - |
| 1778210721 | 22.22° C | 20% | 1014.1 hPa | 0 mm | - | 0 W/m² | - |
| 1778210419 | 22.22° C | 20% | 1013.8 hPa | 0 mm | - | 0 W/m² | - |
| 1778210116 | 22.22° C | 20% | 1013.8 hPa | 0 mm | - | 0 W/m² | - |
| 1778209811 | 22.22° C | 20% | 1013.8 hPa | 0 mm | - | 0 W/m² | - |
| 1778209509 | 22.22° C | 20% | 1013.5 hPa | 0 mm | - | 0 W/m² | - |
| 1778209207 | 22.22° C | 20% | 1013.7 hPa | 0 mm | - | 0 W/m² | - |
| 1778208902 | 22.22° C | 20% | 1013.5 hPa | 0 mm | - | 0 W/m² | - |
| 1778208599 | 22.22° C | 20% | 1013.3 hPa | 0 mm | - | 0 W/m² | - |
| 1778208295 | 21.67° C | 21% | 1013.5 hPa | 0 mm | - | 0 W/m² | - |
| 1778207992 | 21.11° C | 21% | 1013.5 hPa | 0 mm | - | 0 W/m² | - |
| 1778207689 | 21.11° C | 22% | 1013.2 hPa | 0 mm | - | 0 W/m² | - |
| 1778207386 | 21.67° C | 21% | 1013.2 hPa | 0 mm | - | 1 W/m² | - |
| 1778207082 | 22.22° C | 21% | 1013.2 hPa | 0 mm | - | 2 W/m² | - |
| 1778206779 | 22.78° C | 21% | 1013.1 hPa | 0 mm | - | 3 W/m² | - |
| 1778206475 | 23.33° C | 20% | 1013.1 hPa | 0 mm | - | 5 W/m² | - |
| 1778206171 | 23.33° C | 20% | 1013.2 hPa | 0 mm | - | 8 W/m² | - |
| 1778205869 | 23.89° C | 20% | 1013 hPa | 0 mm | - | 11 W/m² | - |
| 1778205566 | 24.44° C | 19% | 1013 hPa | 0 mm | - | 15 W/m² | - |
| 1778205264 | 24.44° C | 19% | 1013.1 hPa | 0 mm | - | 17 W/m² | - |
| 1778204960 | 24.44° C | 19% | 1013 hPa | 0 mm | - | 23 W/m² | - |
| 1778204658 | 24.44° C | 18% | 1013.2 hPa | 0 mm | - | 23 W/m² | - |
| 1778204358 | 24.44° C | 18% | 1013 hPa | 0 mm | - | 34 W/m² | - |
* Rain latest hour (hover to see other rain measurements)
** Current wind speed in m/s (hover to see current wind gust speed)